RXJ2504 LKMT-LKPR

Flight info

Callsign RXJ2504
Flight time 0h 42m
Altitude 8000
Route UPLAV L726 TUMKA DCT VLM
Aircraft B736/M-SDE2E3FGHIRWXY/LB1

Departure

Time 2026-04-15 11:21
Airport Leoš Janáček Airport Ostrava (LKMT)

Arrival

Time 2026-04-15 12:03
Airport Václav Havel Airport Prague (LKPR)
Time Latitude Longitude Altitude Speed Heading
2026-04-15 10:42 49.70230 18.12876 819 ft 0 kts 354°
2026-04-15 11:17 49.70233 18.12876 819 ft 2 kts 352°
2026-04-15 11:17 49.70268 18.12870 819 ft 7 kts 360°
2026-04-15 11:18 49.70324 18.12919 815 ft 12 kts 47°
2026-04-15 11:18 49.70388 18.13024 818 ft 14 kts 46°
2026-04-15 11:18 49.70456 18.13121 812 ft 12 kts 28°
2026-04-15 11:18 49.70529 18.13080 816 ft 12 kts 317°
2026-04-15 11:19 49.70589 18.12995 815 ft 12 kts 317°
2026-04-15 11:19 49.70645 18.12908 816 ft 11 kts 312°
2026-04-15 11:19 49.70689 18.12821 817 ft 6 kts 287°
2026-04-15 11:19 49.70675 18.12766 812 ft 6 kts 216°
2026-04-15 11:20 49.70642 18.12730 817 ft 6 kts 220°
2026-04-15 11:20 49.70628 18.12707 814 ft 0 kts 226°
2026-04-15 11:20 49.70401 18.12339 823 ft 104 kts 226°
2026-04-15 11:20 49.69699 18.11176 989 ft 180 kts 226°
2026-04-15 11:21 49.68831 18.09838 2398 ft 178 kts 225°
2026-04-15 11:21 49.67990 18.08435 3624 ft 182 kts 227°
2026-04-15 11:21 49.67128 18.06862 4435 ft 197 kts 227°
2026-04-15 11:21 49.66147 18.05244 4975 ft 223 kts 223°
2026-04-15 11:22 49.64948 18.03427 5371 ft 255 kts 223°
2026-04-15 11:22 49.63660 18.01471 6337 ft 264 kts 223°
2026-04-15 11:22 49.62352 17.99460 7427 ft 267 kts 224°
2026-04-15 11:22 49.61029 17.97410 8000 ft 271 kts 224°
2026-04-15 11:23 49.59696 17.95330 8250 ft 274 kts 224°
2026-04-15 11:23 49.58358 17.93233 8258 ft 274 kts 224°
2026-04-15 11:23 49.57027 17.91142 8264 ft 273 kts 224°
2026-04-15 11:23 49.55695 17.89049 8279 ft 273 kts 224°
2026-04-15 11:24 49.54367 17.86961 8271 ft 273 kts 224°
2026-04-15 11:24 49.53038 17.84875 8276 ft 273 kts 224°
2026-04-15 11:24 49.51704 17.82784 8260 ft 274 kts 224°
2026-04-15 11:24 49.50366 17.80692 8277 ft 274 kts 224°
2026-04-15 11:25 49.49023 17.78608 8265 ft 274 kts 224°
2026-04-15 11:25 49.47694 17.76550 8268 ft 274 kts 224°
2026-04-15 11:25 49.46348 17.74467 8272 ft 274 kts 224°
2026-04-15 11:25 49.45002 17.72385 8267 ft 275 kts 224°
2026-04-15 11:26 49.43654 17.70301 8264 ft 275 kts 224°
2026-04-15 11:26 49.42304 17.68215 8261 ft 274 kts 224°
2026-04-15 11:26 49.40957 17.66134 8266 ft 274 kts 224°
2026-04-15 11:26 49.39614 17.64057 8259 ft 274 kts 224°
2026-04-15 11:27 49.38268 17.61986 8267 ft 274 kts 224°
2026-04-15 11:27 49.36924 17.59918 8258 ft 274 kts 224°
2026-04-15 11:27 49.35580 17.57850 8246 ft 274 kts 224°
2026-04-15 11:27 49.34233 17.55780 8260 ft 274 kts 224°
2026-04-15 11:28 49.32908 17.53733 8260 ft 274 kts 226°
2026-04-15 11:28 49.31930 17.51243 8262 ft 276 kts 250°
2026-04-15 11:28 49.31387 17.48413 8259 ft 276 kts 251°
2026-04-15 11:28 49.30860 17.45762 8260 ft 276 kts 251°
2026-04-15 11:29 49.30294 17.42970 8250 ft 277 kts 251°
2026-04-15 11:29 49.29722 17.40157 8254 ft 277 kts 251°
2026-04-15 11:29 49.29145 17.37334 8263 ft 277 kts 251°
2026-04-15 11:29 49.28567 17.34507 8259 ft 279 kts 251°
2026-04-15 11:30 49.27986 17.31670 8241 ft 279 kts 251°
2026-04-15 11:30 49.27412 17.28873 8242 ft 277 kts 251°
2026-04-15 11:30 49.26834 17.26062 8245 ft 276 kts 251°
2026-04-15 11:30 49.26258 17.23263 8262 ft 275 kts 251°
2026-04-15 11:31 49.25682 17.20468 8245 ft 275 kts 251°
2026-04-15 11:31 49.25106 17.17679 8246 ft 275 kts 251°
2026-04-15 11:31 49.24529 17.14882 8259 ft 275 kts 251°
2026-04-15 11:31 49.23950 17.12084 8255 ft 276 kts 251°
2026-04-15 11:32 49.23369 17.09281 8267 ft 276 kts 251°
2026-04-15 11:32 49.22788 17.06478 8266 ft 276 kts 251°
2026-04-15 11:32 49.22206 17.03679 8269 ft 276 kts 250°
2026-04-15 11:32 49.21622 17.00876 8254 ft 277 kts 251°
2026-04-15 11:33 49.21039 16.98073 8263 ft 277 kts 251°
2026-04-15 11:33 49.20453 16.95264 8264 ft 277 kts 250°
2026-04-15 11:33 49.19873 16.92489 8260 ft 278 kts 251°
2026-04-15 11:33 49.19284 16.89673 8260 ft 278 kts 250°
2026-04-15 11:34 49.18695 16.86861 8267 ft 277 kts 250°
2026-04-15 11:34 49.18107 16.84055 8264 ft 277 kts 250°
2026-04-15 11:34 49.17519 16.81250 8269 ft 277 kts 250°
2026-04-15 11:34 49.16929 16.78444 8271 ft 277 kts 251°
2026-04-15 11:35 49.16338 16.75642 8266 ft 278 kts 250°
2026-04-15 11:35 49.15742 16.72818 8262 ft 278 kts 250°
2026-04-15 11:35 49.15339 16.69939 8254 ft 280 kts 268°
2026-04-15 11:35 49.15738 16.67038 8272 ft 282 kts 292°
2026-04-15 11:36 49.16651 16.64378 8275 ft 283 kts 297°
2026-04-15 11:36 49.17579 16.61762 8268 ft 283 kts 297°
2026-04-15 11:36 49.18515 16.59114 8255 ft 284 kts 297°
2026-04-15 11:36 49.19452 16.56449 8263 ft 283 kts 296°
2026-04-15 11:37 49.20383 16.53791 8266 ft 283 kts 296°
2026-04-15 11:37 49.21308 16.51135 8262 ft 283 kts 296°
2026-04-15 11:37 49.22231 16.48476 8260 ft 283 kts 296°
2026-04-15 11:37 49.23153 16.45818 8262 ft 283 kts 296°
2026-04-15 11:38 49.24073 16.43155 8242 ft 283 kts 296°
2026-04-15 11:38 49.24994 16.40487 8262 ft 283 kts 296°
2026-04-15 11:38 49.25912 16.37827 8258 ft 284 kts 296°
2026-04-15 11:38 49.26836 16.35145 8263 ft 284 kts 296°
2026-04-15 11:39 49.27756 16.32472 8268 ft 284 kts 296°
2026-04-15 11:39 49.28679 16.29787 8269 ft 285 kts 296°
2026-04-15 11:39 49.29606 16.27099 8258 ft 285 kts 296°
2026-04-15 11:39 49.30526 16.24410 8260 ft 285 kts 296°
2026-04-15 11:40 49.31450 16.21724 8260 ft 285 kts 296°
2026-04-15 11:40 49.32379 16.19050 8253 ft 283 kts 296°
2026-04-15 11:40 49.33291 16.16425 8254 ft 282 kts 297°
2026-04-15 11:40 49.34211 16.13777 8257 ft 281 kts 296°
2026-04-15 11:41 49.35126 16.11139 8255 ft 280 kts 296°
2026-04-15 11:41 49.36035 16.08511 8252 ft 279 kts 297°
2026-04-15 11:41 49.36946 16.05878 8259 ft 279 kts 297°
2026-04-15 11:41 49.37855 16.03249 8258 ft 279 kts 296°
2026-04-15 11:42 49.38764 16.00616 8263 ft 279 kts 296°
2026-04-15 11:42 49.39675 15.97974 8264 ft 281 kts 297°
2026-04-15 11:42 49.40593 15.95309 8247 ft 283 kts 296°
2026-04-15 11:42 49.41511 15.92631 8252 ft 283 kts 296°
2026-04-15 11:43 49.42424 15.89958 8249 ft 282 kts 296°
2026-04-15 11:43 49.43336 15.87288 8241 ft 282 kts 296°
2026-04-15 11:43 49.44245 15.84619 8244 ft 281 kts 296°
2026-04-15 11:43 49.45154 15.81951 8247 ft 281 kts 296°
2026-04-15 11:44 49.46059 15.79291 8244 ft 281 kts 296°
2026-04-15 11:44 49.46962 15.76636 8242 ft 280 kts 296°
2026-04-15 11:44 49.47864 15.73981 8245 ft 280 kts 296°
2026-04-15 11:44 49.48750 15.71368 8254 ft 279 kts 296°
2026-04-15 11:45 49.49664 15.68672 8268 ft 281 kts 296°
2026-04-15 11:45 49.50559 15.66031 8240 ft 282 kts 296°
2026-04-15 11:45 49.51464 15.63353 8243 ft 282 kts 296°
2026-04-15 11:45 49.52368 15.60677 8242 ft 282 kts 296°
2026-04-15 11:46 49.53270 15.58004 8249 ft 281 kts 296°
2026-04-15 11:46 49.54169 15.55335 8250 ft 281 kts 296°
2026-04-15 11:46 49.55067 15.52670 8245 ft 280 kts 296°
2026-04-15 11:46 49.55962 15.50010 8247 ft 280 kts 296°
2026-04-15 11:47 49.56855 15.47352 8251 ft 279 kts 296°
2026-04-15 11:47 49.57747 15.44697 8255 ft 279 kts 296°
2026-04-15 11:47 49.58636 15.42043 8251 ft 278 kts 296°
2026-04-15 11:47 49.59224 15.40288 8253 ft 278 kts 296°
2026-04-15 11:48 49.60113 15.37637 8258 ft 278 kts 296°
2026-04-15 11:48 49.61002 15.34978 8262 ft 279 kts 296°
2026-04-15 11:48 49.61890 15.32316 8252 ft 279 kts 296°
2026-04-15 11:48 49.62779 15.29652 8258 ft 279 kts 296°
2026-04-15 11:49 49.63668 15.26988 8274 ft 280 kts 296°
2026-04-15 11:49 49.64562 15.24302 8256 ft 281 kts 296°
2026-04-15 11:49 49.65454 15.21620 8252 ft 281 kts 296°
2026-04-15 11:49 49.66345 15.18940 8266 ft 281 kts 296°
2026-04-15 11:50 49.67237 15.16256 8250 ft 281 kts 296°
2026-04-15 11:50 49.68127 15.13572 8252 ft 279 kts 296°
2026-04-15 11:50 49.69013 15.10898 8257 ft 278 kts 296°
2026-04-15 11:50 49.69894 15.08237 8265 ft 278 kts 296°
2026-04-15 11:51 49.70830 15.05624 8258 ft 278 kts 303°
2026-04-15 11:51 49.71993 15.03234 8266 ft 278 kts 307°
2026-04-15 11:51 49.73210 15.00918 8259 ft 278 kts 308°
2026-04-15 11:51 49.74425 14.98598 8266 ft 277 kts 307°
2026-04-15 11:52 49.75610 14.96295 8270 ft 278 kts 307°
2026-04-15 11:52 49.76799 14.93950 8269 ft 276 kts 307°
2026-04-15 11:52 49.77968 14.91625 8249 ft 270 kts 306°
2026-04-15 11:52 49.79112 14.89339 8261 ft 268 kts 306°
2026-04-15 11:53 49.80256 14.87043 8055 ft 272 kts 306°
2026-04-15 11:53 49.81409 14.84706 7810 ft 272 kts 306°
2026-04-15 11:53 49.82548 14.82397 7555 ft 268 kts 306°
2026-04-15 11:53 49.83669 14.80120 7348 ft 263 kts 307°
2026-04-15 11:54 49.84765 14.77896 7360 ft 258 kts 306°
2026-04-15 11:54 49.85863 14.75664 7015 ft 261 kts 306°
2026-04-15 11:54 49.86961 14.73432 6734 ft 259 kts 307°
2026-04-15 11:54 49.88039 14.71241 6610 ft 251 kts 307°
2026-04-15 11:55 49.89083 14.69118 6456 ft 244 kts 307°
2026-04-15 11:55 49.90102 14.67046 6217 ft 242 kts 307°
2026-04-15 11:55 49.91104 14.65008 6119 ft 234 kts 307°
2026-04-15 11:55 49.92075 14.63032 6015 ft 226 kts 307°
2026-04-15 11:56 49.93015 14.61119 5920 ft 219 kts 307°
2026-04-15 11:56 49.93928 14.59257 5766 ft 215 kts 307°
2026-04-15 11:56 49.94829 14.57418 5511 ft 215 kts 307°
2026-04-15 11:56 49.95736 14.55564 5259 ft 215 kts 307°
2026-04-15 11:57 49.96652 14.53728 5022 ft 215 kts 309°
2026-04-15 11:57 49.98416 14.50235 4558 ft 191 kts 307°
2026-04-15 11:57 49.99174 14.48665 4412 ft 171 kts 307°
2026-04-15 11:58 49.99833 14.47296 4345 ft 151 kts 307°
2026-04-15 11:58 50.00427 14.46060 4208 ft 135 kts 307°
2026-04-15 11:58 50.00986 14.44897 3995 ft 131 kts 307°
2026-04-15 11:58 50.01530 14.43766 3811 ft 129 kts 307°
2026-04-15 11:59 50.02070 14.42644 3647 ft 131 kts 307°
2026-04-15 11:59 50.02617 14.41508 3469 ft 131 kts 307°
2026-04-15 11:59 50.03161 14.40379 3285 ft 129 kts 308°
2026-04-15 11:59 50.03698 14.39261 3116 ft 129 kts 308°
2026-04-15 12:00 50.04233 14.38152 2930 ft 127 kts 308°
2026-04-15 12:00 50.04757 14.37065 2764 ft 126 kts 308°
2026-04-15 12:00 50.05289 14.35961 2586 ft 128 kts 308°
2026-04-15 12:00 50.05818 14.34863 2409 ft 126 kts 308°
2026-04-15 12:01 50.06345 14.33770 2242 ft 126 kts 308°
2026-04-15 12:01 50.06872 14.32674 2052 ft 126 kts 309°
2026-04-15 12:01 50.07397 14.31593 1874 ft 125 kts 308°
2026-04-15 12:01 50.07917 14.30507 1695 ft 125 kts 309°
2026-04-15 12:02 50.08436 14.29436 1519 ft 123 kts 308°
2026-04-15 12:02 50.08951 14.28368 1355 ft 123 kts 309°
2026-04-15 12:02 50.09463 14.27308 1219 ft 119 kts 309°
2026-04-15 12:02 50.09901 14.26405 1199 ft 84 kts 307°
2026-04-15 12:03 50.10164 14.25854 1187 ft 37 kts 307°
2026-04-15 12:03 50.10352 14.25665 1184 ft 15 kts 349°
2026-04-15 12:03 50.10418 14.25663 1182 ft 9 kts
2026-04-15 12:03 50.10475 14.25694 1179 ft 10 kts 49°
2026-04-15 12:04 50.10493 14.25799 1175 ft 11 kts 78°
2026-04-15 12:04 50.10508 14.25925 1173 ft 12 kts 79°
2026-04-15 12:04 50.10525 14.26055 1173 ft 12 kts 79°
2026-04-15 12:04 50.10539 14.26183 1173 ft 12 kts 88°
2026-04-15 12:05 50.10511 14.26300 1172 ft 12 kts 124°
2026-04-15 12:05 50.10471 14.26392 1173 ft 10 kts 124°
2026-04-15 12:05 50.10433 14.26478 1170 ft 8 kts 124°
2026-04-15 12:05 50.10434 14.26501 1171 ft 2 kts 41°
2026-04-15 12:06 50.10452 14.26522 1170 ft 4 kts 34°
2026-04-15 12:06 50.10462 14.26533 1171 ft 0 kts 34°